Location: Orange Harbor Mobile Home Park
(26.6923°N, 81.7937°W)
Time: 08:01:39
(UTC+00:00)

Cosmos 1862 Rocket - Pass Details

Date: 19 September 2020
Orbit: 604 x 634 km, 82.5° (Epoch: 29 October)

Event Time Altitude Azimuth Distance (km) Brightness Sun altitude
Rises 10:19:49 0° 191° (SSW) 2,896 6.8 -13.0°
Reaches altitude 10° 10:22:04 10° 195° (SSW) 1,989 5.9 -12.5°
Maximum altitude 10:26:26 63° 276° (W) 694 3.5 -11.6°
Drops below altitude 10° 10:30:46 10° 358° (N) 1,980 6.2 -10.6°
Sets 10:33:01 0° 1° (N) 2,883 7.1 -10.1°
